Location: ????????
(55.0559°N, 39.1270°E)
Time: 09:07:57
(UTC+00:00)

Cosmos 371 Rocket - Pass Details

Date: 15 November 2025
Orbit: 674 x 690 km, 74.0° (Epoch: 14 December)

Event Time Altitude Azimuth Distance (km) Brightness Sun altitude
Exits shadow 02:33:14 45° 272° (W) 944 3.5 -20.0°
Maximum altitude 02:33:46 47° 252° (WSW) 916 3.5 -20.0°
Drops below altitude 10° 02:38:23 10° 179° (S) 2,140 5.9 -19.3°
Sets 02:40:44 0° 173° (S) 3,051 6.8 -19.0°
